Location: U-46 Planetarium
(42.0300°N, 88.2740°W)
Time: 15:49:44
(UTC-06:00)

NOSS 3-4 (A) - Pass Details

Date: 16 December 2017
Orbit: 951 x 1261 km, 63.4° (Epoch: 19 January)

Event Time Altitude Azimuth Distance (km) Brightness Sun altitude
Rises 17:33:04 0° 194° (SSW) 3,610 7.0 -12.6°
Reaches altitude 10° 17:35:41 10° 188° (S) 2,666 6.2 -13.0°
Maximum altitude 17:41:32 46° 117° (ESE) 1,270 3.8 -14.1°
Enters shadow 17:45:49 19° 53° (NE) 2,153 4.7 -14.8°
